Weather Roundup
Issued by NWS

Home | Current Version | Previous Version | Text Only | Print | Product List | Glossary On
Versions: 1 2 3 4 5 6 7 8 9 10 11 12 13 14 15 16 17 18 19 20 21 22 23 24 25 26 27 28 29 30 31 32 33 34 35 36 37 38 39 40 41 42 43 44 45 46 47 48 49 50
000
NZUS93 KARX 270810
HRRWXR

CURRENT HOURLY OBSERVATIONS ACROSS
MUCH OF THE UPPER MISSISSIPPI VALLEY
NATIONAL WEATHER SERVICE LA CROSSE WI
300 AM CDT WED MAY 27 2015


...SOUTHEAST MINNESOTA...


CITY           SKY/WX    TMP DP  RH WIND       PRES   REMARKS
ROCHESTER      LGT RAIN  57  55  93 W8        29.86S
ROCHESTER/MAYO CLOUDY    56  57 100 W7        29.85S
WINONA         NOT AVBL
AUSTIN         DRIZZLE   57  55  94 W3        29.86S
ALBERT LEA     CLOUDY    57  57 100 CALM      29.87R FOG
DODGE CENTER   DRIZZLE   57  55  94 W6        29.85F
PRESTON        CLOUDY    56  55  94 W10       29.86R
OWATONNA       CLOUDY    57  55  94 SW5       29.86S FOG
FARIBAULT      CLOUDY    55  55 100 SW3       29.85S FOG
$$

...ELSEWHERE IN MINNESOTA...


CITY           SKY/WX    TMP DP  RH WIND       PRES   REMARKS
MINNEAPOLIS    CLOUDY    57  55  93 CALM      29.84R FOG
INTNL FALLS    CLEAR     51  49  92 CALM      29.74R
DULUTH         CLOUDY    52  49  89 W7        29.79R
RED WING       CLOUDY    57  55  94 CALM      29.82S FOG
REDWOOD FALLS  MOCLDY    56  54  93 SW9       29.85S
MANKATO        CLOUDY    55  54  94 W6        29.86S
WORTHINGTON    MOCLDY    54  50  87 W9        29.91R
FAIRMONT       CLOUDY    55  52  88 SW7       29.88R
$$

...SOUTHWEST WISCONSIN...


CITY           SKY/WX    TMP DP  RH WIND       PRES   REMARKS
LA CROSSE      LGT RAIN  61  57  87 NW9       29.81R
PRAIRIE DU CHI RAIN      61  57  88 W10       29.83R
BOSCOBEL       CLOUDY    61  58  90 S6        29.82R
LONE ROCK      CLOUDY    60  58  92 W5        29.82R
PLATTEVILLE    CLOUDY    59  58  97 W3        29.83S
FORT MC COY    CLOUDY    59  58  97 CALM      29.81R
CAMP DOUGLAS   MOCLDY    59  59 100 W8          N/A
VIROQUA        CLOUDY    58  58 100 W9        29.82R
WIS DELLS      CLOUDY    60  56  88 W8        29.79S
$$

...ELSEWHERE IN WISCONSIN...


CITY           SKY/WX    TMP DP  RH WIND       PRES   REMARKS
MILWAUKEE      MOCLDY    64  60  87 SW8       29.80S
MADISON        PTCLDY    60  57  89 VRB5      29.79S
GREEN BAY      CLOUDY    64  59  83 W17G25    29.68R
EAU CLAIRE     LGT RAIN  56  55  97 W7        29.79S
BLACK RVR FLS  DRIZZLE   58  58 100 W5        29.79S
MEDFORD        DRIZZLE   53  52  97 W8        29.76R
WAUSAU         LGT RAIN  56  55  97 NW13      29.71R FOG
WIS RAPIDS     LGT RAIN  59  55  87 W10       29.77R
MARSHFIELD     LGT RAIN  57  54  89 W10G22    29.76R
RICE LAKE      CLOUDY    54  53  94 W5        29.82R
$$

...NORTHEAST IOWA...


CITY           SKY/WX    TMP DP  RH WIND       PRES   REMARKS
DECORAH        CLOUDY    59  57  94 VRB5      29.84R
MASON CITY     LGT RAIN  57  56  96 W8        29.89R
CHARLES CITY   CLOUDY    57  57 100 NW9       29.87R
OELWEIN        CLOUDY    59  57  94 NW10      29.86R
$$

...ELSEWHERE IN IOWA...


CITY           SKY/WX    TMP DP  RH WIND       PRES   REMARKS
DES MOINES     CLOUDY    60  57  89 W6        29.90R
IOWA CITY      CLEAR     60  59  96 W6        29.87S
FORT DODGE     CLOUDY    57  54  88 W3        29.91S
$$

...NORTHERN ILLINOIS...


CITY           SKY/WX    TMP DP  RH WIND       PRES   REMARKS
CHICAGO-OHARE  PTCLDY    65  61  87 SW8       29.83S
CHICAGO-MIDWAY PTCLDY    68  62  81 SW15G22   29.84S
MOLINE         CLEAR     63  59  87 W9        29.86R
ROCKFORD       MOCLDY    62  60  93 S7        29.85R
PEORIA         CLOUDY    69  62  78 SW7       29.91R
$$

NOTE: "FAIR" INDICATES FEW OR NO CLOUDS BELOW 12,000 FEET WITH NO
SIGNIFICANT WEATHER AND/OR OBSTRUCTIONS TO VISIBILITY. WIND
SPEEDS ARE IN MILES-PER-HOUR.



USA.gov is the U.S. government's official web portal to all federal, state and local government web resources and services.